• In Belarus
  • List of Countries
  • For 7 days
  • Water Temperature
  • Weather Map
  • Weather Widgets
  • user-avatar
    Login

    Hourly Weather Gomel

    Today, 2 April, Thursday

    Time Temperature Precipitation Wind Pressure Humidity
    00:00 -2°C° 0 mm 4 mps 747 mmHg 71%
    01:00 -2°C° 0 mm 4 mps 747 mmHg 73%
    02:00 -2°C° 0 mm 3 mps 747 mmHg 80%
    03:00 -2°C° 0 mm 3 mps 746 mmHg 81%
    04:00 -2°C° 0 mm 3 mps 746 mmHg 82%
    05:00 -3°C° 0 mm 4 mps 746 mmHg 83%
    06:00 -2°C° 0 mm 4 mps 746 mmHg 81%
    07:00 -1°C° 0 mm 4 mps 746 mmHg 78%
    08:00 -1°C° 0 mm 5 mps 746 mmHg 75%
    09:00 +1°C° 0 mm 5 mps 746 mmHg 70%
    10:00 +2°C° 0 mm 6 mps 745 mmHg 65%
    11:00 +3°C° 0 mm 6 mps 745 mmHg 60%
    12:00 +4°C° 0 mm 6 mps 745 mmHg 59%
    13:00 +4°C° 0 mm 6 mps 745 mmHg 58%
    14:00 +5°C° 0 mm 6 mps 745 mmHg 57%
    15:00 +6°C° 0 mm 5 mps 745 mmHg 59%
    16:00 +6°C° 0 mm 4 mps 745 mmHg 61%
    17:00 +6°C° 0 mm 4 mps 744 mmHg 62%
    18:00 +4°C° 0 mm 3 mps 745 mmHg 66%
    19:00 +3°C° 0 mm 3 mps 745 mmHg 70%
    20:00 +2°C° 0 mm 3 mps 745 mmHg 74%
    21:00 +1°C° 0 mm 3 mps 745 mmHg 75%
    22:00 +1°C° 0 mm 3 mps 745 mmHg 76%
    23:00 +1°C° 0 mm 3 mps 744 mmHg 77%

    Tomorrow, 3 April, Friday

    Time Temperature Precipitation Wind Pressure Humidity
    00:00 0°C° 0 mm 3 mps 745 mmHg 78%
    01:00 0°C° 0 mm 3 mps 745 mmHg 79%
    02:00 0°C° 0 mm 3 mps 745 mmHg 79%
    03:00 -1°C° 0 mm 4 mps 744 mmHg 78%
    04:00 -1°C° 0 mm 4 mps 744 mmHg 77%
    05:00 0°C° 0 mm 5 mps 744 mmHg 76%
    06:00 +1°C° 0 mm 5 mps 744 mmHg 71%
    07:00 +2°C° 0 mm 6 mps 744 mmHg 66%
    08:00 +3°C° 0 mm 6 mps 744 mmHg 60%
    09:00 +5°C° 0 mm 7 mps 743 mmHg 54%
    10:00 +6°C° 0 mm 8 mps 743 mmHg 48%
    11:00 +9°C° 0 mm 8 mps 743 mmHg 41%
    12:00 +10°C° 0 mm 8 mps 743 mmHg 40%
    13:00 +10°C° 0 mm 8 mps 743 mmHg 39%
    14:00 +11°C° 0 mm 8 mps 743 mmHg 38%
    15:00 +11°C° 0 mm 7 mps 743 mmHg 41%
    16:00 +10°C° 0 mm 6 mps 743 mmHg 45%
    17:00 +10°C° 0 mm 5 mps 743 mmHg 49%
    18:00 +8°C° 0 mm 5 mps 744 mmHg 56%
    19:00 +7°C° 0 mm 4 mps 744 mmHg 63%
    20:00 +5°C° 0 mm 4 mps 745 mmHg 70%
    21:00 +5°C° 0 mm 4 mps 745 mmHg 71%
    22:00 +4°C° 0 mm 3 mps 746 mmHg 71%
    23:00 +3°C° 0 mm 3 mps 746 mmHg 71%

    Day after tomorrow, 4 April, Saturday

    Time Temperature Precipitation Wind Pressure Humidity
    00:00 +3°C° 0 mm 3 mps 747 mmHg 73%
    01:00 +2°C° 0 mm 3 mps 747 mmHg 75%
    02:00 +2°C° 0 mm 3 mps 748 mmHg 77%
    03:00 +1°C° 0 mm 3 mps 749 mmHg 77%
    04:00 +1°C° 0 mm 3 mps 749 mmHg 77%
    05:00 0°C° 0 mm 4 mps 750 mmHg 77%
    06:00 0°C° 0 mm 4 mps 751 mmHg 70%
    07:00 +1°C° 0 mm 5 mps 751 mmHg 64%
    08:00 +2°C° 0 mm 5 mps 752 mmHg 57%
    09:00 +3°C° 0 mm 5 mps 752 mmHg 51%
    10:00 +5°C° 0 mm 5 mps 753 mmHg 45%
    11:00 +6°C° 0 mm 5 mps 753 mmHg 39%
    12:00 +6°C° 0 mm 5 mps 753 mmHg 37%
    13:00 +7°C° 0 mm 5 mps 753 mmHg 36%
    14:00 +7°C° 0 mm 5 mps 754 mmHg 34%
    15:00 +7°C° 0 mm 5 mps 754 mmHg 36%
    16:00 +7°C° 0 mm 5 mps 754 mmHg 37%
    17:00 +7°C° 0 mm 5 mps 754 mmHg 39%
    18:00 +5°C° 0 mm 4 mps 755 mmHg 46%
    19:00 +4°C° 0 mm 3 mps 755 mmHg 53%
    20:00 +4°C° 0 mm 2 mps 756 mmHg 60%
    21:00 +2°C° 0 mm 3 mps 756 mmHg 62%
    22:00 +2°C° 0 mm 3 mps 757 mmHg 65%
    23:00 +1°C° 0 mm 3 mps 757 mmHg 68%

    5 April, Sunday

    Time Temperature Precipitation Wind Pressure Humidity
    00:00 +1°C° 0 mm 3 mps 758 mmHg 70%
    01:00 0°C° 0 mm 4 mps 758 mmHg 72%
    02:00 -1°C° 0 mm 4 mps 759 mmHg 73%
    03:00 -1°C° 0 mm 4 mps 759 mmHg 73%
    04:00 -2°C° 0 mm 4 mps 760 mmHg 73%
    05:00 -2°C° 0 mm 4 mps 760 mmHg 72%
    06:00 -1°C° 0 mm 5 mps 761 mmHg 66%
    07:00 -1°C° 0 mm 5 mps 762 mmHg 59%
    08:00 -1°C° 0 mm 6 mps 763 mmHg 53%
    09:00 +1°C° 0 mm 6 mps 763 mmHg 45%
    10:00 +2°C° 0 mm 6 mps 764 mmHg 38%
    11:00 +3°C° 0 mm 6 mps 764 mmHg 31%
    12:00 +5°C° 0 mm 5 mps 764 mmHg 31%
    13:00 +5°C° 0 mm 5 mps 764 mmHg 30%
    14:00 +6°C° 0 mm 5 mps 764 mmHg 30%
    15:00 +6°C° 0 mm 4 mps 764 mmHg 31%
    16:00 +6°C° 0 mm 4 mps 764 mmHg 33%
    17:00 +6°C° 0 mm 4 mps 764 mmHg 34%
    18:00 +4°C° 0 mm 3 mps 765 mmHg 39%
    19:00 +4°C° 0 mm 2 mps 765 mmHg 43%
    20:00 +4°C° 0 mm 1 mps 766 mmHg 48%
    21:00 +3°C° 0 mm 1 mps 766 mmHg 49%
    22:00 +3°C° 0 mm 1 mps 766 mmHg 50%
    23:00 +1°C° 0 mm 0 mps 767 mmHg 51%

    6 April, Monday

    Time Temperature Precipitation Wind Pressure Humidity
    00:00 +2°C° 0 mm 1 mps 767 mmHg 51%
    01:00 +2°C° 0 mm 1 mps 767 mmHg 51%
    02:00 +2°C° 0 mm 1 mps 767 mmHg 51%
    03:00 +2°C° 0 mm 1 mps 767 mmHg 52%
    04:00 +1°C° 0 mm 2 mps 768 mmHg 52%
    05:00 -1°C° 0 mm 2 mps 768 mmHg 53%
    06:00 +2°C° 0 mm 2 mps 768 mmHg 49%
    07:00 +3°C° 0 mm 2 mps 768 mmHg 45%
    08:00 +5°C° 0 mm 2 mps 768 mmHg 42%
    09:00 +6°C° 0 mm 2 mps 768 mmHg 38%
    10:00 +7°C° 0 mm 3 mps 768 mmHg 35%
    11:00 +9°C° 0 mm 3 mps 768 mmHg 31%
    12:00 +10°C° 0 mm 3 mps 768 mmHg 31%
    13:00 +10°C° 0 mm 3 mps 768 mmHg 30%
    14:00 +11°C° 0 mm 3 mps 767 mmHg 29%
    15:00 +11°C° 0 mm 3 mps 767 mmHg 31%
    16:00 +11°C° 0 mm 3 mps 767 mmHg 33%
    17:00 +11°C° 0 mm 3 mps 767 mmHg 35%
    18:00 +9°C° 0 mm 2 mps 766 mmHg 39%
    19:00 +7°C° 0 mm 2 mps 766 mmHg 43%
    20:00 +6°C° 0 mm 2 mps 766 mmHg 47%
    21:00 +5°C° 0 mm 2 mps 766 mmHg 50%
    22:00 +5°C° 0 mm 2 mps 766 mmHg 52%
    23:00 +3°C° 0 mm 3 mps 766 mmHg 54%

    7 April, Tuesday

    Time Temperature Precipitation Wind Pressure Humidity
    00:00 +3°C° 0 mm 3 mps 766 mmHg 56%
    01:00 +2°C° 0 mm 3 mps 766 mmHg 58%
    02:00 +2°C° 0 mm 3 mps 766 mmHg 59%
    03:00 +2°C° 0 mm 3 mps 766 mmHg 61%
    04:00 +1°C° 0 mm 3 mps 766 mmHg 62%
    05:00 +1°C° 0 mm 3 mps 766 mmHg 63%
    06:00 +2°C° 0 mm 3 mps 766 mmHg 59%
    07:00 +4°C° 0 mm 3 mps 766 mmHg 55%
    08:00 +5°C° 0 mm 4 mps 766 mmHg 51%
    09:00 +7°C° 0 mm 4 mps 765 mmHg 46%
    10:00 +10°C° 0 mm 4 mps 765 mmHg 42%
    11:00 +12°C° 0 mm 5 mps 765 mmHg 38%
    12:00 +13°C° 0 mm 5 mps 765 mmHg 35%
    13:00 +15°C° 0 mm 5 mps 764 mmHg 32%
    14:00 +16°C° 0 mm 5 mps 764 mmHg 30%
    15:00 +15°C° 0 mm 5 mps 764 mmHg 32%
    16:00 +15°C° 0 mm 4 mps 763 mmHg 35%
    17:00 +15°C° 0 mm 4 mps 763 mmHg 37%
    18:00 +13°C° 0 mm 3 mps 763 mmHg 43%
    19:00 +11°C° 0 mm 3 mps 763 mmHg 49%
    20:00 +10°C° 0 mm 3 mps 763 mmHg 54%
    21:00 +9°C° 0 mm 3 mps 763 mmHg 57%
    22:00 +9°C° 0 mm 3 mps 763 mmHg 61%
    23:00 +8°C° 0 mm 3 mps 763 mmHg 64%
    Show more